CW2056 Weather Reports


time (UTC)temp
F
wind
direction
speed
knots
gust
knots
rain 1hr
in
rain 24hr
in
rain mn
in
humidity
%
barometer
mb
20260505201003 32 17 6.1 9.6 0.05 0.00 0.69 98 1015.7
20260505200502 32 19 6.1 8.7 0.02 0.00 0.68 97 1015.7
20260505195502 32 17 5.2 7.0 0.00 0.00 0.68 97 1016.0
20260505195002 32 25 4.3 7.8 0.00 0.00 0.68 97 1015.8
20260505194002 32 28 4.3 6.1 0.00 0.00 0.68 97 1015.8
20260505193503 32 10 2.6 6.1 0.00 0.00 0.68 97 1015.8
20260505193002 32 17 5.2 7.0 0.00 0.00 0.68 97 1016.0
20260505192002 32 23 4.3 8.7 0.00 0.00 0.68 96 1016.1
20260505190502 32 40 5.2 8.7 0.00 0.00 0.68 95 1016.1
20260505185002 35 41 3.5 8.7 0.05 0.00 0.67 94 1016.0
20260505184502 36 73 2.6 6.1 0.05 0.00 0.67 94 1015.7
20260505184002 36 55 2.6 4.3 0.05 0.00 0.67 94 1015.7
20260505183503 36 47 3.5 4.3 0.07 0.00 0.66 93 1015.7
20260505182502 37 60 1.7 1.7 0.07 0.00 0.65 94 1015.7
20260505182002 37 89 1.7 2.6 0.07 0.00 0.65 93 1015.7
20260505181503 37 70 1.7 3.5 0.05 0.00 0.64 93 1015.5
20260505175503 37 44 1.7 3.5 0.05 0.00 0.62 93 1015.8
20260505175002 37 55 0.9 1.7 0.05 0.00 0.61 93 1015.7
20260505174502 37 48 1.7 2.6 0.05 0.00 0.61 94 1016.0
20260505174003 37 73 1.7 2.6 0.05 0.00 0.61 94 1015.8
20260505173501 37 83 2.6 2.6 0.02 0.00 0.60 94 1015.7
20260505173003 38 96 1.7 2.6 0.02 0.00 0.60 94 1015.8
20260505172502 37 70 1.7 2.6 0.02 0.00 0.60 94 1015.8
20260505172002 37 97 0.9 1.7 0.02 0.00 0.59 92 1016.2
20260505170502 37 96 1.7 2.6 0.05 0.00 0.59 92 1016.3
20260505170003 37 85 1.7 2.6 0.05 0.00 0.59 94 1016.2
20260505165502 37 86 1.7 1.7 0.05 0.00 0.58 95 1016.2
20260505165002 36 93 1.7 2.6 0.07 0.00 0.58 95 1016.3
20260505164502 36 115 0.9 2.6 0.09 0.00 0.57 94 1016.3
20260505164002 36 109 0.9 1.7 0.12 0.00 0.57 94 1016.1
20260505163503 35 62 1.7 2.6 0.09 0.00 0.56 94 1016.2
20260505162503 36 98 0.9 2.6 0.12 0.00 0.54 95 1016.3
20260505162004 36 72 1.7 1.7 0.12 0.00 0.53 95 1016.2
20260505161502 36 85 1.7 2.6 0.09 0.00 0.52 95 1016.2
20260505161002 35 83 1.7 2.6 0.07 0.00 0.51 95 1016.3
20260505153002 35 69 1.7 2.6 0.12 0.00 0.44 97 1016.4
20260505152502 35 66 1.7 1.7 0.12 0.00 0.42 97 1016.6
20260505152002 35 77 1.7 2.6 0.09 0.00 0.41 97 1016.3
20260505151502 35 76 1.7 2.6 0.09 0.00 0.41 97 1016.4
20260505151003 34 71 1.7 2.6 0.09 0.00 0.40 97 1016.6
20260505150502 34 75 1.7 2.6 0.12 0.00 0.39 97 1016.6
20260505140503 32 62 2.6 3.5 0.00 0.00 0.29 97 1016.7
20260505125003 33 35 3.5 3.5 0.05 0.00 0.27 96 1016.1
20260505124502 33 23 3.5 4.3 0.05 0.00 0.27 96 1016.0
20260505124003 33 38 3.5 4.3 0.07 0.00 0.26 96 1016.0
20260505123502 33 54 1.7 3.5 0.07 0.00 0.26 96 1015.7
20260505122502 33 62 2.6 3.5 0.07 0.00 0.25 96 1015.8
20260505122002 33 49 1.7 2.6 0.05 0.00 0.24 96 1015.7
20260505121502 33 39 2.6 3.5 0.05 0.00 0.24 96 1015.7
20260505121003 33 36 3.5 4.3 0.05 0.00 0.23 96 1015.7
20260505120503 33 29 1.7 3.5 0.07 0.00 0.23 96 1015.7
20260505120003 34 40 2.6 3.5 0.07 0.00 0.22 96 1015.7
20260505115502 33 36 1.7 3.5 0.05 0.00 0.22 96 1015.8
20260505115002 33 47 1.7 3.5 0.05 0.00 0.21 96 1015.7
20260505114502 33 55 1.7 3.5 0.05 0.00 0.21 96 1015.7
20260505114002 33 37 2.6 4.3 0.05 0.00 0.20 96 1015.7
20260505113502 33 7 1.7 4.3 0.05 0.00 0.20 96 1015.7
20260505113003 33 40 2.6 5.2 0.05 0.00 0.20 96 1015.7
20260505112502 33 40 0.9 3.5 0.05 0.00 0.19 96 1015.5
20260505112002 33 45 1.7 3.5 0.05 0.00 0.19 96 1015.7
20260505111002 33 36 2.6 3.5 0.05 0.00 0.18 96 1015.5
20260505102001 32 34 3.5 3.5 0.00 0.00 0.17 95 1015.3
20260505101503 33 15 2.6 5.2 0.00 0.00 0.17 95 1015.1
20260505101002 33 13 4.3 5.2 0.02 0.00 0.17 95 1015.1
20260505100502 33 12 4.3 7.0 0.05 0.00 0.17 95 1014.9
20260505100003 33 7 4.3 7.8 0.02 0.00 0.17 94 1015.2
20260505095502 33 20 7.0 7.0 0.02 0.00 0.17 94 1015.1
20260505095002 34 359 7.0 9.6 0.05 0.00 0.17 94 1015.1
20260505094502 34 0 5.2 8.7 0.05 0.00 0.16 94 1015.2
20260505093502 35 30 5.2 10.4 0.05 0.00 0.15 93 1015.2
20260505093003 36 24 7.0 13.0 0.05 0.00 0.15 93 1015.3
20260505091003 37 358 7.0 7.0 0.07 0.00 0.13 93 1015.1
20260505090503 37 28 5.2 8.7 0.07 0.00 0.13 92 1014.8
20260505090002 38 16 3.5 7.8 0.05 0.00 0.12 91 1014.9
20260505085502 38 22 4.3 8.7 0.07 0.00 0.11 93 1014.8
20260505085002 39 32 5.2 9.6 0.05 0.00 0.11 93 1014.9
20260505084502 39 14 6.1 8.7 0.02 0.00 0.10 93 1014.6
20260505083503 39 29 5.2 9.6 0.12 0.00 0.09 93 1014.7
20260505083002 39 20 4.3 7.0 0.12 0.00 0.09 93 1014.6
20260505082502 39 6 7.0 8.7 0.07 0.00 0.07 92 1014.2
20260505082002 40 23 5.2 11.3 0.02 0.00 0.06 92 1014.3
20260505081502 40 12 6.1 7.8 0.02 0.00 0.06 91 1014.3
20260505081002 40 358 5.2 8.7 0.00 0.00 0.06 91 1014.5
20260505080502 41 28 6.1 7.0 0.02 0.00 0.06 91 1014.5
20260505075502 41 41 5.2 7.0 0.00 0.00 0.05 91 1014.3
20260505075002 41 11 6.1 7.8 0.00 0.00 0.05 89 1014.3
20260505074502 41 31 3.5 6.1 0.02 0.00 0.05 90 1014.3
20260505074003 41 8 4.3 11.3 0.02 0.00 0.05 89 1014.1
20260505073502 41 11 4.3 7.8 0.02 0.00 0.05 89 1014.6
20260505073003 41 12 7.8 9.6 0.05 0.00 0.05 88 1014.5
20260505072502 41 19 6.1 7.8 0.07 0.00 0.04 89 1014.5
20260505071503 42 20 5.2 7.8 0.09 0.00 0.03 87 1014.3
20260505071003 42 5 4.3 8.7 0.02 0.00 0.02 87 1014.1
20260505070002 42 6 5.2 8.7 0.02 0.00 0.01 86 1014.3
20260505065002 42 14 8.7 13.0 0.02 0.00 0.01 85 1014.2
20260505064502 43 353 7.0 11.3 0.05 0.00 0.01 83 1014.2
20260505064002 43 9 8.7 12.2 0.02 0.00 0.00 83 1014.1
20260505063502 43 355 8.7 12.2 0.00 0.00 0.00 81 1014.2
20260505063003 43 2 9.6 13.0 0.00 0.00 0.00 81 1014.5
20260505062503 44 3 8.7 12.2 0.00 0.00 0.00 79 1014.1
20260505062002 44 353 13.0 14.8 0.00 0.00 0.00 78 1014.1
20260505061502 44 25 9.6 15.6 0.00 0.00 0.00 78 1014.2
20260505061002 44 6 10.4 13.9 0.00 0.00 0.00 78 1014.2
20260505060503 44 355 9.6 12.2 0.00 0.00 0.00 79 1014.2
20260505060002 44 3 7.0 13.0 0.00 0.00 0.09 79 1014.0
20260505054505 44 354 8.7 13.0 0.00 0.00 0.09 80 1013.9
20260505053502 47 0 7.8 16.5 0.00 0.00 0.09 79 1013.3
20260505053002 49 352 10.4 16.5 0.00 0.00 0.09 78 1013.2
20260505052502 50 1 5.2 7.0 0.00 0.00 0.09 85 1013.1
20260505052002 49 4 6.1 6.1 0.00 0.00 0.09 86 1012.8
20260505051502 49 13 5.2 5.2 0.00 0.00 0.09 85 1012.8
20260505050502 49 23 2.6 3.5 0.00 0.00 0.09 83 1012.7
20260505041502 49 63 1.7 1.7 0.00 0.00 0.09 77 1012.5
20260505041002 49 66 1.7 1.7 0.00 0.00 0.09 76 1012.2
20260505040502 49 69 0.9 1.7 0.00 0.00 0.09 75 1012.4
20260505040002 49 52 0.0 1.7 0.00 0.00 0.09 75 1012.2
20260505035502 49 59 1.7 1.7 0.00 0.00 0.09 75 1012.1
20260505035002 49 45 1.7 1.7 0.00 0.00 0.09 75 1012.2
20260505034503 49 63 0.9 1.7 0.00 0.00 0.09 76 1012.4
20260505034002 50 86 1.7 1.7 0.00 0.00 0.09 76 1012.4
20260505033502 50 135 0.0 0.0 0.00 0.00 0.09 75 1012.4
20260505033003 50 218 0.0 0.0 0.00 0.00 0.09 74 1012.0
20260505032502 50 257 0.0 0.9 0.00 0.00 0.09 74 1012.4
20260505032002 49 67 0.9 1.7 0.00 0.00 0.09 76 1012.0
20260505031002 50 67 0.9 1.7 0.00 0.00 0.09 75 1011.9
20260505030503 50 97 1.7 1.7 0.00 0.00 0.09 73 1012.0
20260505030002 50 55 0.0 0.0 0.00 0.00 0.09 72 1012.0
20260505025502 49 55 0.0 0.9 0.00 0.00 0.09 77 1011.9
20260505025002 50 71 1.7 1.7 0.00 0.00 0.09 79 1011.7
20260505024503 50 145 0.0 0.9 0.00 0.00 0.09 77 1011.7
20260505024003 50 169 0.0 1.7 0.00 0.00 0.09 76 1011.4
20260505023502 50 157 0.0 0.9 0.00 0.00 0.09 74 1011.5
20260505023002 49 107 0.9 1.7 0.00 0.00 0.09 81 1011.2
20260505022502 50 100 0.0 0.9 0.00 0.00 0.09 76 1011.3
20260505022003 50 147 0.0 0.9 0.00 0.00 0.09 76 1011.3
20260505021503 50 55 0.0 0.0 0.00 0.00 0.09 77 1011.4
20260505021002 50 141 0.0 0.0 0.00 0.00 0.09 77 1011.3
20260505015502 50 86 0.9 1.7 0.00 0.00 0.09 77 1011.4
20260505015002 51 68 0.9 1.7 0.00 0.00 0.09 76 1011.7
20260505014502 51 84 1.7 1.7 0.00 0.00 0.09 70 1011.4
20260505014003 51 87 1.7 1.7 0.00 0.00 0.09 76 1011.3
20260505013502 51 56 0.0 1.7 0.00 0.00 0.09 71 1011.3
20260505012502 51 245 1.7 3.5 0.00 0.00 0.09 68 1011.2
20260505012003 51 245 6.1 7.0 0.00 0.00 0.09 69 1011.1
20260505011503 51 234 3.5 7.8 0.00 0.00 0.09 70 1011.2
20260505011002 51 308 3.5 7.0 0.00 0.00 0.09 70 1011.2
20260505010502 51 267 2.6 7.0 0.00 0.00 0.09 71 1011.2
20260505005502 51 226 5.2 6.1 0.00 0.00 0.09 71 1011.1
20260505005002 51 229 3.5 7.0 0.00 0.00 0.09 71 1010.9
20260505004502 51 244 3.5 5.2 0.00 0.00 0.09 72 1011.1
20260505004002 51 247 7.0 9.6 0.00 0.00 0.09 71 1011.2
20260505003002 51 267 0.9 5.2 0.05 0.00 0.09 73 1011.1
20260505002002 51 251 0.0 3.5 0.17 0.00 0.09 74 1011.4
20260505001502 51 232 1.7 3.5 0.17 0.00 0.07 74 1011.8
20260505001003 52 329 1.7 3.5 0.14 0.00 0.06 70 1011.7
20260505000502 53 287 3.5 5.2 0.07 0.00 0.04 64 1011.7
20260505000002 54 304 1.7 1.7 0.05 0.00 0.04 61 1011.3
20260504235502 56 274 1.7 3.5 0.02 0.00 0.03 54 1011.4
20260504235002 56 89 1.7 3.5 0.02 0.00 0.03 55 1011.1
20260504234502 55 242 5.2 7.0 0.02 0.00 0.02 55 1011.2
20260504234002 56 245 7.0 7.8 0.02 0.00 0.02 54 1010.9
20260504233503 59 305 12.2 13.0 0.00 0.00 0.02 46 1010.8
20260504233002 60 325 2.6 5.2 0.00 0.00 0.02 40 1010.5
20260504232502 60 353 1.7 3.5 0.00 0.00 0.02 40 1010.3
20260504232002 60 328 2.6 4.3 0.00 0.00 0.02 39 1010.1
20260504231503 60 344 1.7 4.3 0.00 0.00 0.02 39 1010.3
20260504231002 61 1 4.3 8.7 0.00 0.00 0.02 40 1009.9
20260504230503 61 354 4.3 7.8 0.00 0.00 0.02 39 1009.9
20260504230002 61 325 3.5 4.3 0.00 0.00 0.02 39 1009.9
20260504225502 61 345 6.1 7.0 0.00 0.00 0.02 39 1009.6
20260504225002 61 347 6.1 7.8 0.00 0.00 0.02 38 1009.9
20260504224502 62 352 7.8 9.6 0.00 0.00 0.02 38 1009.7
20260504224002 62 349 7.0 9.6 0.00 0.00 0.02 37 1009.4
20260504223502 62 343 7.0 12.2 0.00 0.00 0.02 37 1009.3
20260504223002 62 357 6.1 10.4 0.00 0.00 0.02 37 1009.7
20260504222502 61 1 9.6 9.6 0.00 0.00 0.02 37 1009.6
20260504222002 61 357 4.3 9.6 0.00 0.00 0.02 40 1009.6
20260504221502 61 339 7.0 10.4 0.00 0.00 0.02 37 1009.6
20260504220502 62 350 7.8 10.4 0.00 0.00 0.02 39 1009.7
20260504220002 62 343 7.0 12.2 0.00 0.00 0.02 39 1009.9
20260504215502 63 307 6.1 10.4 0.00 0.00 0.02 40 1010.0
20260504215002 63 3 6.1 12.2 0.00 0.00 0.02 41 1010.0
20260504214502 62 353 9.6 14.8 0.00 0.00 0.02 41 1010.3
20260504213502 60 357 12.2 14.8 0.00 0.00 0.02 42 1010.4
20260504213002 60 11 9.6 10.4 0.00 0.00 0.02 45 1010.5
20260504212502 60 354 7.0 7.8 0.00 0.00 0.02 48 1010.3
20260504212002 60 14 7.0 8.7 0.00 0.00 0.02 50 1010.5
20260504210503 57 38 1.7 3.5 0.00 0.00 0.02 50 1010.3
20260504210003 56 286 0.9 1.7 0.00 0.00 0.02 59 1010.5
20260504205505 56 13 2.6 4.3 0.02 0.00 0.02 56 1010.5
20260504205002 55 68 1.7 5.2 0.05 0.00 0.02 59 1010.8
20260504204502 56 2 4.3 7.8 0.00 0.00 0.01 54 1011.3
20260504204003 58 336 7.0 13.0 0.00 0.00 0.01 50 1011.3
20260504203002 58 355 2.6 5.2 0.00 0.00 0.01 45 1011.5
20260504202502 58 7 2.6 4.3 0.00 0.00 0.01 47 1011.4
20260504201502 58 10 3.5 7.8 0.00 0.00 0.01 46 1011.4